Flag for Poland Weather past 2 weeks in Legnica, Poland

Now
63 °F

Overcast.


Feels Like: 63 °F
Forecast: 46 / 58 °F
Wind: 7 mph from Northwest

Location: Wroclaw Ii

Current Time: May 26, 2015 at 2:47:15 PM

Latest Report: May 26, 2015 at 2:00 PM


Visibility: 22 mi

Pressure: 29.90 "Hg

Humidity: 56%

Dew point: 47 °F

Location of LegnicaLocation

Historic Weather in Legnica — Graph

°F

Legnica temperature yesterday

Maximum temperature yesterday: 70 °F (at 5:00 PM)
Minimum temperature yesterday: 46 °F (at 6:00 AM)
Average temperature yesterday: 60 °F

Past Weeks' High & Low Weather Summary

 TemperatureHumidityPressure
High76 °F (May 12, 2:00 PM)96% (May 21, 12:00 AM)30.39 "Hg (May 21, 12:00 AM)
Low32 °F (May 15, 9:00 AM)33% (May 12, 1:00 PM)29.69 "Hg (May 19, 7:00 AM)
Average57 °F67%30.02 "Hg
* Reported May 11 1:00 PM — May 26 1:00 PM, Legnica, Weather by CustomWeather, © 2015

Note: Actual official high and low records may vary slightly from our data, if they occured in-between our weather recording intervals... More about our weather records

Advertising

Legnica weather history for previous 24 hours

 ConditionsComfort  
Time TempWeatherWind HumidityBarometerVisibility
1:00 PM
Tue, May 26
63 °FOvercast.6 mph59%29.90 "Hg22 mi
12:00 PM63 °FOvercast.5 mph62%29.89 "Hg22 mi
11:00 AM61 °FOvercast.6 mph65%29.89 "Hg22 mi
10:00 AM59 °FOvercast.5 mph69%29.87 "Hg19 mi
9:00 AM56 °FOvercast.5 mph74%29.87 "Hg16 mi
8:00 AM55 °FLow clouds.5 mph81%29.86 "Hg9 mi
7:00 AM55 °FLow clouds.5 mph87%29.84 "Hg7 mi
6:00 AM55 °FLight rain. Low clouds.3 mph93%29.84 "Hg5 mi
5:00 AM56 °FLight rain. Overcast.2 mph89%29.82 "Hg7 mi
4:00 AM56 °FOvercast.1 mph88%29.81 "Hg9 mi
3:00 AM57 °FLight rain. Overcast.2 mph86%29.82 "Hg12 mi
2:00 AM58 °FOvercast.2 mph84%29.81 "Hg12 mi
1:00 AMN/APassing clouds.31 mphN/AN/A3 mi
12:00 AM58 °FOvercast.2 mph82%29.83 "Hg12 mi
10:00 PM
Mon, May 25
59 °FOvercast.1 mph81%29.84 "Hg12 mi
9:00 PM61 °FOvercast.1 mph75%29.84 "Hg19 mi
8:00 PM63 °FPartly sunny.2 mph70%29.84 "Hg25 mi
7:00 PM67 °FPartly sunny.5 mph63%29.83 "Hg25 mi
6:00 PM70 °FPartly sunny.3 mph43%29.82 "Hg25 mi
5:00 PM70 °FOvercast.2 mph42%29.84 "Hg25 mi
4:00 PMN/APassing clouds.15 mphN/AN/A3 mi
3:00 PM70 °FOvercast.2 mph43%29.86 "Hg25 mi
2:00 PM69 °FOvercast.2 mph53%29.89 "Hg25 mi
Weather by CustomWeather, © 2015

See weather overviewHow to use our weather pages